Wink, TX

2:11 AM CDT on August 20, 2017 (GMT -0500)
Winkler County

Weather History for KINK - November, 2013

Change the Weather History Date:

Friday, November 8, 2013

  Actual Average Record
Temperature  
Mean Temperature 51 °F -  
Max Temperature 57 °F 72 °F 93 °F (2005)
Min Temperature 44 °F 40 °F 19 °F (1938)
Degree Days  
Heating Degree Days 14    
Growing Degree Days 1 (Base 50)    
Moisture  
Dew Point 33 °F    
Average Humidity 53    
Maximum Humidity 93    
Minimum Humidity 28    
Precipitation  
Precipitation 0.00 in - - ()
Sea Level Pressure  
Sea Level Pressure 30.12 in    
Wind  
Wind Speed 10 mph (SE)    
Max Wind Speed 18 mph    
Max Gust Speed 23 mph    
Visibility 10 miles    
Events Rain    
Averages and records for this station are not official NWS values.
T = Trace of Precipitation, MM = Missing Value Source: NWS Daily Summary

Daily Weather History Graph

Daily Weather History Graph

Search for Another Location

Airport or City:

Trip Planner

Search our weather history database for the weather conditions in past years. The results will help you decide how hot, cold, wet, or windy it might be!

Date:

Astronomy

Nov. 08, 2013 Rise Set
Actual Time 7:15 AM CST 5:57 PM CST
Civil Twilight 6:49 AM CST 6:23 PM CST
Nautical Twilight 6:20 AM CST 6:52 PM CST
Astronomical Twilight 5:51 AM CST 7:20 PM CST
Moon 12:12 PM CST (11/8) 11:19 PM CST (11/8)
Length of Visible Light 11h 33m
Length of Day
10h 42m
Waxing Crescent, 33% of the Moon is Illuminated
Nov 8
Waxing Crescent
Nov 9
First Quarter
Nov 17
Full
Nov 25
Last Quarter
Dec 2
New

Hourly Weather History & Observations

Time (CST) Temp. Windchill Dew Point Humidity Pressure Visibility Wind Dir Wind Speed Gust Speed Precip Events Conditions
12:53 AM 48.9 °F - 21.9 °F 35% 30.26 in 10.0 mi SE 6.9 mph - N/A   Clear
1:53 AM 48.9 °F - 23.0 °F 36% 30.24 in 10.0 mi SE 11.5 mph - N/A   Clear
2:53 AM 48.0 °F - 23.0 °F 37% 30.22 in 10.0 mi ESE 8.1 mph - N/A   Clear
3:53 AM 48.9 °F - 23.0 °F 36% 30.20 in 10.0 mi SE 9.2 mph - N/A   Clear
4:53 AM 48.9 °F - 21.9 °F 35% 30.20 in 10.0 mi SE 4.6 mph - N/A   Scattered Clouds
5:53 AM 50.0 °F - 21.0 °F 32% 30.19 in 10.0 mi SE 6.9 mph - N/A   Partly Cloudy
6:53 AM 51.1 °F - 21.0 °F 31% 30.20 in 10.0 mi SSE 5.8 mph - N/A   Scattered Clouds
7:53 AM 51.1 °F - 21.0 °F 31% 30.20 in 10.0 mi SSE 5.8 mph - N/A   Overcast
8:53 AM 53.1 °F - 24.1 °F 32% 30.20 in 10.0 mi SSE 10.4 mph - 0.00 in Rain Light Rain
9:53 AM 55.0 °F - 21.9 °F 28% 30.20 in 10.0 mi SSE 11.5 mph - 0.00 in   Scattered Clouds
10:53 AM 57.9 °F - 25.0 °F 28% 30.19 in 10.0 mi SSE 12.7 mph - 0.00 in Rain Light Rain
11:53 AM 57.9 °F - 35.1 °F 42% 30.17 in 10.0 mi South 11.5 mph 23.0 mph 0.00 in   Scattered Clouds
12:53 PM 57.0 °F - 41.0 °F 55% 30.13 in 10.0 mi SE 16.1 mph 23.0 mph N/A   Overcast
1:53 PM 57.9 °F - 44.1 °F 60% 30.09 in 10.0 mi SE 18.4 mph - N/A   Overcast
2:53 PM 55.9 °F - 44.1 °F 64% 30.07 in 10.0 mi SSE 18.4 mph - N/A   Mostly Cloudy
3:53 PM 55.9 °F - 44.1 °F 64% 30.05 in 10.0 mi SE 15.0 mph - N/A   Partly Cloudy
4:53 PM 55.9 °F - 44.1 °F 64% 30.03 in 10.0 mi SE 13.8 mph - N/A   Clear
5:53 PM 54.0 °F - 43.0 °F 66% 30.02 in 10.0 mi SE 15.0 mph - N/A   Clear
6:53 PM 51.1 °F - 43.0 °F 74% 30.03 in 10.0 mi SE 12.7 mph - N/A   Clear
7:53 PM 48.9 °F - 43.0 °F 80% 30.03 in 10.0 mi SE 15.0 mph 21.9 mph N/A   Clear
8:53 PM 46.9 °F - 42.1 °F 83% 30.03 in 10.0 mi SE 13.8 mph - N/A   Clear
9:53 PM 46.0 °F 40.6 °F 42.1 °F 86% 30.01 in 10.0 mi SE 11.5 mph - N/A   Clear
10:53 PM 45.0 °F 40.6 °F 42.1 °F 90% 30.01 in 10.0 mi SE 8.1 mph - N/A   Clear
11:53 PM 44.1 °F 39.5 °F 42.1 °F 93% 30.01 in 10.0 mi SE 8.1 mph - N/A   Clear